RH
58 78 75 82 81 67 54 49 70 53 44 85 73 48 59 48 22 19 6 9 13 12 9 9 12 14 14 14 15 15 15 16 16 16 17 17 16 15 14 14 13 13 13
58 68 80 69 63 68 55 62 62 56 52 68 50 34 38 33 20 10 5 12 13 11 10 14 15 15 16 20 20 20 21 21 21 21 21 20 20 19 19 19 18 18 18
66 74 74 67 67 73 64 51 52 54 68 45 34 27 25 21 15 6 8 13 12 12 16 16 15 16 22 24 27 28 26 25 24 24 23 23 23 22 22 20 20 19 18
66 64 80 79 68 73 84 74 50 44 41 36 33 23 15 13 13 6 10 12 14 17 16 15 17 22 28 30 31 32 31 30 30 28 28 26 25 23 21 18 17 17 16
51 60 65 87 82 85 77 59 48 44 50 41 31 17 8 8 9 11 14 15 18 19 18 19 22 31 35 34 34 33 32 31 29 28 28 28 26 24 21 17 16 16 14
60 60 87 95 80 71 62 82 71 57 67 46 34 18 8 8 8 11 16 18 20 19 20 22 29 34 34 38 38 36 36 36 34 33 31 26 23 20 21 18 16 14 14
62 64 64 72 76 60 87 61 82 91 78 60 36 19 9 9 11 12 16 20 23 23 24 28 33 33 33 37 39 34 34 36 36 34 31 26 23 19 19 17 15 14 13
66 77 67 70 75 81 99 87 67 95 91 71 49 17 9 12 20 20 18 24 26 28 31 30 30 33 32 35 42 37 38 39 40 38 32 26 21 20 19 16 14 12 14
68 68 71 76 85 86 94 94 73 92 100 79 54 14 10 18 22 25 24 26 29 33 36 33 29 30 33 37 44 44 45 44 44 42 35 26 20 18 16 14 14 13 13
73 74 76 92 99 96 85 99 95 96 99 98 51 12 13 25 25 28 29 30 33 37 37 33 34 38 39 41 46 50 51 41 40 40 32 24 20 17 18 15 18 19 16
57 69 82 97 83 92 96 98 99 87 99 93 43 12 16 27 28 31 32 35 39 42 43 42 42 39 36 46 51 55 42 34 36 35 27 23 18 21 17 25 24 19 17
60 82 90 100 100 99 99 97 92 100 98 92 34 13 21 29 31 32 35 40 41 41 38 43 52 50 42 59 55 47 30 35 35 29 22 18 24 19 27 26 21 21 17
66 79 95 82 90 98 99 100 94 99 100 76 24 13 25 31 32 33 37 42 44 41 41 51 56 43 51 60 55 34 32 40 34 26 21 21 26 27 29 25 21 17 17
76 83 84 82 98 99 98 100 99 100 96 63 21 15 27 30 32 41 42 41 46 43 39 58 46 44 55 64 56 38 32 37 33 26 21 25 28 34 30 24 18 20 20
95 94 89 81 76 99 100 100 97 100 91 71 21 18 31 34 38 41 46 52 49 44 48 45 53 55 56 62 53 42 34 32 32 28 24 23 28 35 35 25 23 25 23
91 96 96 95 81 86 98 97 100 100 98 86 44 27 36 38 38 53 65 60 54 49 53 55 51 41 65 55 44 43 32 29 29 31 26 27 37 36 38 37 29 35 39
99 88 100 99 100 96 84 89 98 96 96 58 34 36 74 42 52 66 61 63 56 48 55 60 50 60 58 44 45 43 33 33 31 36 36 33 39 38 34 45 38 33 43
100 84 93 95 100 100 98 93 100 92 86 35 56 56 54 52 70 78 64 72 54 54 65 56 54 66 48 45 49 42 38 35 35 37 36 36 35 34 35 47 52 43 52
80 89 100 85 100 100 100 100 100 96 78 58 72 100 76 63 79 79 75 74 57 61 66 58 72 58 44 45 49 45 35 38 44 45 48 51 52 49 56 60 56 55 50
100 88 99 95 92 99 92 100 99 99 88 99 100 100 96 86 93 90 81 70 58 61 60 49 75 59 51 55 52 44 41 49 54 55 54 52 52 56 60 62 61 53 47
88 90 100 100 100 100 100 96 92 98 97 98 100 100 97 99 99 80 67 62 60 58 54 69 81 66 59 47 44 39 37 43 53 50 55 57 54 52 50 58 57 46 32
95 98 88 86 99 96 100 100 100 100 100 100 100 100 100 98 88 73 63 62 58 73 54 74 68 71 68 58 47 44 38 39 44 48 54 61 61 58 58 53 51 42 39
31 54 55 77 97 89 99 99 99 100 100 99 99 100 92 100 89 74 75 66 70 77 76 77 77 86 93 81 66 60 50 41 53 59 63 69 67 68 64 64 68 64 55
32 14 13 24 41 59 89 98 98 98 97 81 90 97 100 91 82 72 64 66 76 87 81 78 85 94 95 89 86 75 64 58 52 54 60 67 73 78 88 88 83 73 70
30 34 36 35 34 35 40 48 53 57 62 65 65 68 66 70 68 65 69 79 79 73 73 80 86 94 95 100 100 93 89 88 79 75 77 77 77 89 93 94 95 86 69
21 20 27 36 36 38 42 43 47 51 53 56 60 63 69 70 69 74 76 83 80 83 84 86 91 98 98 100 94 100 100 100 100 99 98 92 99 96 98 94 100 93 82
Wind_Speed
15 24 21 22 21 18 26 29 25 26 28 29 27 22 18 14 11 10 11 14 12 11 10 10 11 11 11 10 10 9 9 8 7 7 7 8 8 7 8 8 7 6 6
11 18 26 27 28 24 23 24 29 24 32 31 27 22 19 16 13 13 14 14 13 11 11 12 13 12 11 9 7 6 6 6 6 6 7 7 7 7 7 7 7 7 7
17 20 18 20 20 22 23 21 27 36 23 31 27 24 20 16 14 15 16 15 14 13 13 13 14 12 10 8 6 5 5 5 5 7 8 8 7 7 7 6 7 7 7
11 14 17 17 20 27 28 29 35 33 31 29 26 21 17 15 15 18 18 17 17 15 15 14 13 12 9 6 5 5 5 5 5 6 6 6 6 5 6 5 6 6 6
16 16 19 24 18 28 29 39 37 33 31 27 23 20 18 18 20 20 20 18 18 16 15 13 12 12 10 9 8 7 6 6 6 5 5 5 5 5 5 6 6 6 6
17 17 24 27 25 31 30 39 36 35 31 27 25 22 21 22 22 22 20 20 18 17 15 14 13 14 12 9 7 6 5 5 6 5 5 5 6 5 6 6 6 6 6
13 17 23 24 30 30 41 33 43 38 34 30 27 24 22 24 24 24 22 20 19 16 15 13 13 12 10 8 7 6 8 6 5 5 4 4 4 5 6 6 7 7 8
16 18 22 26 30 31 46 37 39 42 38 33 31 24 24 27 27 26 23 22 20 18 16 14 13 11 9 7 6 6 4 6 5 4 3 4 4 6 6 7 9 10 11
16 17 22 24 26 40 46 40 33 43 43 34 30 25 26 29 29 27 25 24 22 19 16 12 9 9 8 4 4 4 2 2 3 3 3 4 5 7 8 9 10 10 11
10 12 16 16 25 29 33 43 39 52 36 40 31 26 31 33 31 28 26 24 22 18 15 12 9 7 5 3 2 1 0 2 2 3 2 3 5 7 8 9 10 11 12
19 19 13 18 27 33 41 43 56 56 42 39 30 30 35 35 32 31 27 25 23 21 17 12 7 4 3 3 2 1 4 4 3 4 3 3 5 6 7 8 9 10 12
17 15 17 17 41 46 51 52 39 47 49 37 34 35 37 36 35 33 30 27 24 21 15 12 7 4 5 2 4 5 8 4 2 3 3 4 5 5 5 7 9 12 13
15 13 14 25 21 58 61 65 63 44 39 40 36 37 40 39 37 34 33 32 29 17 14 10 6 7 4 3 3 6 8 4 3 1 3 5 4 2 3 7 10 11 12
9 12 8 8 12 35 47 58 51 47 42 39 36 37 39 37 38 40 35 30 20 15 15 12 11 7 9 4 5 6 6 4 2 1 2 5 3 1 3 7 10 13 15
7 6 8 2 15 25 45 48 49 44 39 35 36 38 39 41 41 33 30 25 24 19 14 16 10 9 10 6 7 7 7 5 4 3 4 6 5 4 4 8 10 14 16
7 9 9 9 13 12 30 38 46 41 40 42 37 39 39 40 38 26 27 24 22 18 16 14 10 13 12 9 8 8 8 6 6 6 7 8 8 7 8 10 10 14 18
13 5 11 12 11 17 17 25 30 35 35 34 41 40 35 38 32 25 28 22 23 18 19 15 11 13 13 10 8 10 9 7 7 7 9 12 11 10 12 14 15 18 22
9 8 9 17 14 18 22 29 30 35 36 41 39 39 39 39 27 30 29 26 25 20 19 13 12 13 12 9 11 12 11 9 8 10 12 13 14 15 16 17 18 19 22
11 12 10 9 15 15 21 25 37 27 39 44 44 34 40 34 32 32 30 26 25 22 17 14 14 14 14 12 14 13 12 10 11 11 10 11 14 16 18 21 20 19 19
11 12 17 11 13 16 11 33 25 26 37 41 36 34 38 41 38 28 32 32 28 23 17 16 17 16 14 14 15 15 14 12 12 13 12 12 15 18 19 20 20 19 18
13 9 14 19 21 15 24 23 26 30 34 33 37 37 40 33 33 33 34 29 24 20 17 20 19 16 14 15 17 17 17 17 16 14 14 15 16 20 22 24 22 21 20
16 17 17 14 19 16 24 19 23 23 19 27 33 27 26 26 35 38 31 28 22 23 23 22 18 17 18 16 17 19 21 20 20 20 19 20 21 22 20 23 24 25 26
15 15 15 15 17 16 17 20 21 24 26 26 29 29 27 29 38 38 34 26 25 24 25 22 21 20 21 21 21 23 24 23 22 24 24 25 26 26 24 26 29 31 30
10 12 13 15 18 19 24 25 25 27 25 25 29 29 28 31 32 33 31 27 25 27 28 26 23 20 21 24 25 26 28 27 28 30 28 29 31 31 30 32 33 32 35
8 10 11 13 15 19 21 20 20 20 21 24 25 25 25 27 31 29 26 28 31 32 28 25 22 22 19 22 27 29 32 33 33 33 31 31 35 35 34 34 36 35 35
3 6 8 9 11 13 16 18 20 20 20 21 22 22 25 27 26 26 26 24 27 28 27 26 22 26 26 24 29 32 37 36 36 35 36 33 37 37 36 34 36 35 38
Wind_Direction
224 210 199 178 184 229 268 261 219 215 206 212 214 220 216 202 191 191 180 171 172 168 155 143 131 115 110 108 104 107 106 109 104 98 91 78 72 70 69 67 67 61 59
228 226 223 227 225 238 254 222 200 222 202 209 214 212 212 207 190 196 185 177 177 169 154 141 124 114 111 106 110 109 109 106 101 94 87 79 80 80 76 75 71 66 62
184 198 214 219 217 232 222 227 201 187 218 207 206 204 205 202 196 192 185 179 178 168 155 139 131 129 123 124 122 121 114 112 112 115 105 99 88 82 79 75 69 60 56
221 217 190 216 234 208 197 202 200 202 193 203 201 198 197 199 198 191 188 185 174 164 159 149 143 129 126 127 126 125 126 121 123 121 111 107 99 91 77 74 74 68 61
242 227 204 196 216 207 214 189 198 198 195 200 196 194 193 195 193 188 184 180 173 169 163 157 146 132 129 129 120 115 126 130 126 123 118 110 101 92 80 80 71 58 51
228 226 213 222 224 230 234 227 192 201 198 195 196 194 192 191 192 191 186 179 169 171 169 170 154 138 145 138 125 126 159 146 136 131 119 109 95 87 70 63 57 49 38
237 237 237 235 236 230 212 250 204 198 199 203 195 194 188 188 188 188 184 174 171 174 180 177 156 148 145 134 128 138 134 123 112 108 96 90 92 87 67 55 44 34 24
239 232 237 232 239 225 225 227 209 192 199 197 201 191 185 185 183 182 178 172 174 178 186 187 166 147 142 137 132 134 117 110 109 106 118 118 107 80 59 49 40 33 25
250 240 246 249 239 228 228 224 208 199 196 197 197 187 185 183 182 177 176 176 178 181 191 192 170 152 136 136 123 126 104 100 140 134 115 94 80 65 56 46 34 26 16
261 269 261 244 233 224 211 201 202 207 192 195 192 186 183 183 179 175 178 179 179 182 193 199 186 155 141 171 94 84 103 245 183 124 105 84 75 69 63 58 50 27 13
276 279 266 242 252 231 218 223 214 204 187 192 188 185 183 182 178 178 178 179 180 182 189 204 201 139 185 225 183 55 295 251 183 150 135 89 87 83 75 50 29 20 11
264 260 248 278 257 224 210 211 195 202 196 180 192 185 184 183 180 180 180 179 183 186 193 207 194 171 215 247 352 344 293 269 207 150 123 122 116 86 61 29 16 3 1
261 251 243 291 296 216 207 208 220 201 186 177 191 188 185 184 183 184 184 183 183 181 193 194 186 227 240 248 324 306 280 250 217 152 136 150 145 93 28 9 358 0 2
260 252 239 321 46 170 199 194 202 195 170 183 190 189 188 188 190 188 190 186 182 188 211 185 211 227 241 266 298 283 266 235 237 255 184 182 197 228 345 1 3 4 359
219 217 203 231 88 150 173 179 172 180 172 186 193 188 189 193 194 192 195 192 193 202 199 211 208 228 245 256 272 267 240 235 252 249 238 227 226 254 320 354 7 5 354
191 173 167 171 111 100 162 167 170 176 180 193 192 189 191 197 199 214 198 182 194 205 206 207 214 244 249 260 269 257 241 239 244 245 243 238 239 260 307 326 338 346 346
168 173 174 160 164 164 156 159 177 184 188 189 193 192 206 202 197 222 195 192 208 210 208 213 225 240 251 265 261 254 252 258 259 252 251 248 253 279 304 307 310 324 332
162 178 181 165 158 179 184 186 186 184 191 186 193 199 202 200 207 204 197 191 219 211 214 216 231 243 256 260 251 253 258 266 267 261 257 261 268 279 289 292 294 307 324
196 186 171 183 178 190 197 201 193 197 202 194 204 217 204 200 193 198 193 211 219 213 217 225 231 249 261 252 249 252 262 270 275 264 266 282 287 286 288 284 287 305 315
196 195 200 214 176 202 182 196 207 202 216 211 218 215 203 198 196 214 202 207 214 213 218 231 234 248 257 258 259 260 262 270 266 269 284 291 292 287 283 282 288 294 302
189 184 187 215 222 205 233 191 206 233 219 229 227 223 207 228 210 198 199 209 211 215 229 232 238 250 265 266 263 266 265 269 273 280 289 294 294 296 286 279 280 289 293
205 213 215 181 213 215 230 230 250 244 252 215 225 220 228 209 191 199 208 207 215 224 237 235 243 255 260 267 271 268 269 271 277 284 290 293 297 304 286 282 287 291 294
101 122 142 158 202 191 193 199 196 195 192 198 192 192 187 202 199 199 208 206 221 232 238 238 244 253 262 266 269 270 273 278 279 280 286 292 299 304 299 297 296 292 291
104 121 124 130 132 142 163 171 181 188 194 194 187 183 190 188 193 201 203 216 221 224 237 242 247 259 267 270 275 278 279 279 277 279 283 290 293 301 300 298 293 292 294
114 127 137 143 136 137 135 140 149 159 161 173 174 175 179 191 198 203 210 223 228 236 244 248 256 262 280 275 274 276 274 276 273 273 276 281 284 285 291 296 291 292 295
170 129 135 153 152 148 146 146 149 158 166 172 179 180 186 199 207 211 217 222 228 238 244 255 260 264 268 276 278 279 271 264 265 267 269 274 283 281 288 296 292 288 292